This is the latest recevied weather packets stored in our database for station/object KLRF. If no packets are shown the sender has not sent any weather packets the latest 1 day(s).
| Time | Temp. | Humidity | Pressure | Rain* | Wind** | Luminosity | Snow |
|---|---|---|---|---|---|---|---|
| 1778025815 | 22.78° C | 83% | 1005.4 hPa | - | 2.68 m/s, 150° | - | - |
| 1778025215 | 22.78° C | 83% | 1005.4 hPa | - | 2.68 m/s, 150° | - | - |
| 1778024611 | 22.78° C | 83% | 1005.4 hPa | - | 2.68 m/s, 150° | - | - |
| 1778024015 | 22.78° C | 83% | 1005.4 hPa | - | 2.68 m/s, 150° | - | - |
| 1778023415 | 22.78° C | 83% | 1005.4 hPa | - | 2.68 m/s, 150° | - | - |
| 1778022815 | 22.78° C | 83% | 1005.4 hPa | - | 2.68 m/s, 150° | - | - |
| 1778022339 | 21.67° C | 88% | 1005.8 hPa | - | 1.79 m/s, 180° | - | - |
| 1778021617 | 21.67° C | 88% | 1005.8 hPa | - | 1.79 m/s, 180° | - | - |
| 1778021012 | 21.67° C | 88% | 1005.8 hPa | - | 1.79 m/s, 180° | - | - |
| 1778020413 | 21.67° C | 88% | 1005.8 hPa | - | 1.79 m/s, 180° | - | - |
| 1778019811 | 21.67° C | 88% | 1006.1 hPa | - | 2.24 m/s, 200° | - | - |
| 1778019213 | 21.67° C | 88% | 1006.1 hPa | - | 2.24 m/s, 200° | - | - |
| 1778018734 | 20.56° C | 88% | 1006.4 hPa | - | 3.58 m/s, 190° | - | - |
| 1778018016 | 20.56° C | 88% | 1006.4 hPa | - | 3.58 m/s, 190° | - | - |
| 1778017416 | 20.56° C | 88% | 1006.4 hPa | - | 3.58 m/s, 190° | - | - |
| 1778016815 | 20.56° C | 88% | 1006.4 hPa | - | 3.58 m/s, 190° | - | - |
| 1778016212 | 20.56° C | 88% | 1006.4 hPa | - | 3.58 m/s, 190° | - | - |
| 1778015614 | 20.56° C | 88% | 1006.4 hPa | - | 3.58 m/s, 190° | - | - |
| 1778015013 | 20.56° C | 94% | 1006.4 hPa | - | 1.79 m/s, 160° | - | - |
| 1778014412 | 20.56° C | 94% | 1006.4 hPa | - | 1.79 m/s, 160° | - | - |
| 1778013816 | 20.56° C | 94% | 1006.4 hPa | - | 1.79 m/s, 160° | - | - |
| 1778013214 | 20.56° C | 94% | 1006.4 hPa | - | 1.79 m/s, 160° | - | - |
| 1778012618 | 20.56° C | 88% | 1006.4 hPa | - | 2.24 m/s, 160° | - | - |
| 1778012013 | 20.56° C | 88% | 1006.4 hPa | - | 2.68 m/s, 170° | - | - |
| 1778011411 | 20.56° C | 88% | 1006.4 hPa | - | 4.02 m/s, 210° | - | - |
* Rain since midnight (hover to see other rain measurements)
** Current wind speed in m/s (hover to see current wind gust speed)